AIQ635 VVDN-VTBD

Flight info

Callsign AIQ635
Flight time 1h 19m
Altitude 38000
Route TANNA A1 UBL Y20 UBLOD ENDUU3A
Aircraft A320/M-SDE3FGHIRWY/LB1

Departure

Time 2026-04-21 15:41
Airport Da Nang International Airport (VVDN)

Arrival

Time 2026-04-21 17:00
Airport Don Mueang International Airport (VTBD)
Time Latitude Longitude Altitude Speed Heading
2026-04-21 15:00 16.05295 108.20181 35 ft 0 kts 83°
2026-04-21 15:29 16.05292 108.20159 33 ft 4 kts 84°
2026-04-21 15:29 16.05290 108.20132 32 ft 4 kts 86°
2026-04-21 15:30 16.05289 108.20104 34 ft 4 kts 90°
2026-04-21 15:30 16.05290 108.20076 33 ft 4 kts 102°
2026-04-21 15:30 16.05299 108.20053 33 ft 4 kts 149°
2026-04-21 15:30 16.05305 108.20049 30 ft 0 kts 173°
2026-04-21 15:34 16.05287 108.20052 32 ft 5 kts 171°
2026-04-21 15:34 16.05242 108.20059 34 ft 9 kts 172°
2026-04-21 15:34 16.05169 108.20069 34 ft 13 kts 172°
2026-04-21 15:34 16.05068 108.20083 34 ft 17 kts 173°
2026-04-21 15:35 16.04947 108.20101 33 ft 18 kts 172°
2026-04-21 15:35 16.04822 108.20120 33 ft 18 kts 171°
2026-04-21 15:35 16.04698 108.20139 34 ft 18 kts 172°
2026-04-21 15:35 16.04573 108.20156 33 ft 18 kts 172°
2026-04-21 15:36 16.04443 108.20175 33 ft 20 kts 172°
2026-04-21 15:36 16.04302 108.20196 34 ft 21 kts 172°
2026-04-21 15:36 16.04160 108.20217 34 ft 20 kts 172°
2026-04-21 15:36 16.04036 108.20234 34 ft 17 kts 173°
2026-04-21 15:37 16.03912 108.20251 35 ft 19 kts 172°
2026-04-21 15:37 16.03778 108.20271 35 ft 20 kts 172°
2026-04-21 15:37 16.03632 108.20292 34 ft 22 kts 172°
2026-04-21 15:37 16.03476 108.20315 34 ft 23 kts 172°
2026-04-21 15:38 16.03309 108.20339 33 ft 25 kts 172°
2026-04-21 15:38 16.03137 108.20364 33 ft 24 kts 172°
2026-04-21 15:38 16.02995 108.20381 33 ft 16 kts 182°
2026-04-21 15:38 16.02936 108.20343 31 ft 0 kts 243°
2026-04-21 15:39 16.02927 108.20324 32 ft 5 kts 247°
2026-04-21 15:39 16.02928 108.20276 31 ft 8 kts 294°
2026-04-21 15:40 16.02980 108.20246 31 ft 10 kts 352°
2026-04-21 15:40 16.03055 108.20235 31 ft 14 kts 352°
2026-04-21 15:40 16.03358 108.20191 33 ft 80 kts 352°
2026-04-21 15:40 16.04118 108.20081 34 ft 138 kts 352°
2026-04-21 15:41 16.05228 108.19920 146 ft 175 kts 353°
2026-04-21 15:41 16.06419 108.19790 860 ft 173 kts 357°
2026-04-21 15:41 16.07660 108.19738 1312 ft 188 kts 359°
2026-04-21 15:41 16.09045 108.19706 1607 ft 210 kts 359°
2026-04-21 15:42 16.10586 108.19672 1925 ft 234 kts 359°
2026-04-21 15:42 16.12295 108.19632 2333 ft 258 kts 359°
2026-04-21 15:42 16.14141 108.19584 2957 ft 270 kts 358°
2026-04-21 15:42 16.15998 108.19769 3721 ft 276 kts 20°
2026-04-21 15:43 16.17551 108.20931 4495 ft 280 kts 55°
2026-04-21 15:43 16.18267 108.22791 5275 ft 281 kts 83°
2026-04-21 15:43 16.18317 108.24825 6102 ft 283 kts 94°
2026-04-21 15:43 16.18133 108.26872 6870 ft 286 kts 97°
2026-04-21 15:44 16.17922 108.28942 7633 ft 289 kts 96°
2026-04-21 15:44 16.17765 108.31036 8416 ft 292 kts 94°
2026-04-21 15:44 16.17676 108.33157 9199 ft 295 kts 92°
2026-04-21 15:44 16.17574 108.35267 9936 ft 298 kts 101°
2026-04-21 15:45 16.16748 108.37236 10582 ft 302 kts 130°
2026-04-21 15:45 16.15081 108.38540 11217 ft 305 kts 160°
2026-04-21 15:45 16.12971 108.38915 11633 ft 318 kts 178°
2026-04-21 15:45 16.10682 108.38986 11782 ft 341 kts 180°
2026-04-21 15:46 16.08241 108.38995 12033 ft 358 kts 181°
2026-04-21 15:46 16.05727 108.38986 12572 ft 364 kts 181°
2026-04-21 15:46 16.03179 108.38983 13171 ft 369 kts 180°
2026-04-21 15:46 16.00602 108.38992 13774 ft 372 kts 180°
2026-04-21 15:47 15.98034 108.38996 14311 ft 376 kts 183°
2026-04-21 15:47 15.95480 108.38447 14829 ft 377 kts 203°
2026-04-21 15:47 15.93261 108.37006 15348 ft 379 kts 224°
2026-04-21 15:47 15.91678 108.34833 15853 ft 380 kts 245°
2026-04-21 15:48 15.90935 108.32213 16385 ft 381 kts 265°
2026-04-21 15:48 15.90867 108.29458 16901 ft 383 kts 270°
2026-04-21 15:48 15.90853 108.26683 17426 ft 386 kts 270°
2026-04-21 15:48 15.90839 108.23880 17942 ft 389 kts 270°
2026-04-21 15:49 15.90822 108.21062 18406 ft 392 kts 270°
2026-04-21 15:49 15.90802 108.18257 18816 ft 395 kts 270°
2026-04-21 15:49 15.90781 108.15384 19197 ft 400 kts 270°
2026-04-21 15:49 15.90758 108.12485 19594 ft 403 kts 270°
2026-04-21 15:50 15.90733 108.09561 19992 ft 406 kts 270°
2026-04-21 15:50 15.90707 108.06618 20389 ft 409 kts 270°
2026-04-21 15:50 15.90681 108.03651 20779 ft 412 kts 270°
2026-04-21 15:50 15.90654 108.00660 21160 ft 415 kts 270°
2026-04-21 15:51 15.90629 107.97651 21551 ft 418 kts 270°
2026-04-21 15:51 15.90606 107.94657 21921 ft 421 kts 270°
2026-04-21 15:51 15.90584 107.91603 22291 ft 425 kts 270°
2026-04-21 15:51 15.90562 107.88526 22663 ft 427 kts 270°
2026-04-21 15:52 15.90536 107.85427 23029 ft 430 kts 270°
2026-04-21 15:52 15.90506 107.82308 23385 ft 433 kts 270°
2026-04-21 15:52 15.90473 107.79166 23694 ft 436 kts 270°
2026-04-21 15:52 15.90440 107.76010 24015 ft 438 kts 270°
2026-04-21 15:53 15.90408 107.72840 24346 ft 440 kts 270°
2026-04-21 15:53 15.90374 107.69661 24680 ft 441 kts 270°
2026-04-21 15:53 15.90235 107.66516 24991 ft 443 kts 264°
2026-04-21 15:53 15.89627 107.63369 25298 ft 446 kts 255°
2026-04-21 15:54 15.88740 107.60274 25626 ft 448 kts 254°
2026-04-21 15:54 15.87844 107.57171 25936 ft 449 kts 254°
2026-04-21 15:54 15.86947 107.54056 26236 ft 451 kts 255°
2026-04-21 15:54 15.86050 107.50930 26544 ft 453 kts 255°
2026-04-21 15:55 15.85150 107.47792 26832 ft 454 kts 255°
2026-04-21 15:55 15.84245 107.44642 27153 ft 456 kts 255°
2026-04-21 15:55 15.83348 107.41522 27446 ft 458 kts 255°
2026-04-21 15:55 15.82437 107.38349 27746 ft 459 kts 255°
2026-04-21 15:56 15.81519 107.35169 28043 ft 461 kts 255°
2026-04-21 15:56 15.80595 107.31978 28345 ft 462 kts 255°
2026-04-21 15:56 15.79670 107.28777 28618 ft 464 kts 255°
2026-04-21 15:56 15.78746 107.25567 28871 ft 465 kts 255°
2026-04-21 15:57 15.77818 107.22342 29127 ft 467 kts 255°
2026-04-21 15:57 15.76889 107.19103 29397 ft 469 kts 255°
2026-04-21 15:57 15.76012 107.15840 29651 ft 470 kts 257°
2026-04-21 15:57 15.75245 107.12544 29909 ft 471 kts 259°
2026-04-21 15:58 15.74563 107.09264 30133 ft 472 kts 260°
2026-04-21 15:58 15.73901 107.05920 30366 ft 473 kts 261°
2026-04-21 15:58 15.73239 107.02587 30649 ft 472 kts 261°
2026-04-21 15:58 15.72562 106.99258 30949 ft 471 kts 260°
2026-04-21 15:59 15.71864 106.95937 31244 ft 471 kts 260°
2026-04-21 15:59 15.71149 106.92626 31534 ft 470 kts 259°
2026-04-21 15:59 15.70421 106.89321 31816 ft 469 kts 259°
2026-04-21 15:59 15.69691 106.86021 32115 ft 469 kts 259°
2026-04-21 16:00 15.68966 106.82726 32430 ft 468 kts 260°
2026-04-21 16:00 15.68255 106.79478 32715 ft 468 kts 260°
2026-04-21 16:00 15.67538 106.76186 32985 ft 468 kts 260°
2026-04-21 16:00 15.66823 106.72900 33267 ft 467 kts 260°
2026-04-21 16:01 15.66107 106.69614 33588 ft 466 kts 260°
2026-04-21 16:01 15.65392 106.66337 33928 ft 465 kts 260°
2026-04-21 16:01 15.64679 106.63071 34224 ft 464 kts 260°
2026-04-21 16:01 15.63966 106.59811 34479 ft 463 kts 260°
2026-04-21 16:02 15.63256 106.56554 34735 ft 463 kts 260°
2026-04-21 16:02 15.62545 106.53298 34984 ft 463 kts 260°
2026-04-21 16:02 15.61842 106.50088 35234 ft 462 kts 260°
2026-04-21 16:02 15.61129 106.46838 35478 ft 462 kts 260°
2026-04-21 16:03 15.60418 106.43592 35712 ft 462 kts 260°
2026-04-21 16:03 15.59708 106.40342 35943 ft 462 kts 260°
2026-04-21 16:03 15.58997 106.37098 36170 ft 461 kts 260°
2026-04-21 16:03 15.58283 106.33853 36399 ft 461 kts 260°
2026-04-21 16:04 15.57572 106.30614 36649 ft 460 kts 260°
2026-04-21 16:04 15.56861 106.27384 36875 ft 460 kts 260°
2026-04-21 16:04 15.56158 106.24196 37087 ft 459 kts 260°
2026-04-21 16:04 15.55445 106.20968 37296 ft 459 kts 260°
2026-04-21 16:05 15.54735 106.17742 37491 ft 459 kts 260°
2026-04-21 16:05 15.54026 106.14517 37695 ft 459 kts 260°
2026-04-21 16:05 15.53314 106.11293 37850 ft 459 kts 260°
2026-04-21 16:05 15.52599 106.08064 37881 ft 460 kts 260°
2026-04-21 16:06 15.51165 106.01607 37866 ft 459 kts 260°
2026-04-21 16:06 15.49749 105.95205 37865 ft 458 kts 260°
2026-04-21 16:07 15.48331 105.88776 37855 ft 457 kts 260°
2026-04-21 16:07 15.46905 105.82352 37857 ft 457 kts 259°
2026-04-21 16:08 15.44754 105.72712 37854 ft 458 kts 259°
2026-04-21 16:09 15.43329 105.66329 37854 ft 457 kts 259°
2026-04-21 16:09 15.41892 105.59903 37842 ft 458 kts 259°
2026-04-21 16:10 15.40424 105.53480 37844 ft 458 kts 258°
2026-04-21 16:10 15.38906 105.47111 37846 ft 459 kts 258°
2026-04-21 16:11 15.37371 105.40695 37852 ft 459 kts 258°
2026-04-21 16:11 15.35854 105.34276 37849 ft 459 kts 258°
2026-04-21 16:12 15.34595 105.28938 37855 ft 459 kts 258°
2026-04-21 16:12 15.32816 105.21429 37855 ft 459 kts 258°
2026-04-21 16:13 15.31300 105.15050 37858 ft 459 kts 258°
2026-04-21 16:13 15.29778 105.08627 37858 ft 459 kts 258°
2026-04-21 16:14 15.28256 105.02210 37858 ft 459 kts 258°
2026-04-21 16:14 15.26721 104.95787 37884 ft 459 kts 258°
2026-04-21 16:15 15.25196 104.89411 37880 ft 459 kts 258°
2026-04-21 16:15 15.24211 104.82926 37883 ft 455 kts 268°
2026-04-21 16:16 15.23684 104.76394 37881 ft 455 kts 267°
2026-04-21 16:16 15.23154 104.69861 37877 ft 455 kts 267°
2026-04-21 16:17 15.22624 104.63373 37874 ft 455 kts 267°
2026-04-21 16:17 15.22084 104.56842 37867 ft 455 kts 267°
2026-04-21 16:18 15.21539 104.50316 37859 ft 455 kts 267°
2026-04-21 16:18 15.20993 104.43786 37862 ft 455 kts 267°
2026-04-21 16:19 15.20450 104.37304 37861 ft 455 kts 267°
2026-04-21 16:19 15.19902 104.30779 37859 ft 455 kts 267°
2026-04-21 16:20 15.19354 104.24257 37862 ft 455 kts 267°
2026-04-21 16:20 15.18805 104.17739 37863 ft 454 kts 267°
2026-04-21 16:21 15.18253 104.11265 37854 ft 455 kts 267°
2026-04-21 16:21 15.17699 104.04741 37854 ft 455 kts 267°
2026-04-21 16:22 15.17150 103.98215 37855 ft 455 kts 267°
2026-04-21 16:22 15.16589 103.91682 37858 ft 456 kts 267°
2026-04-21 16:23 15.16030 103.85190 37858 ft 456 kts 267°
2026-04-21 16:23 15.15456 103.78657 37867 ft 455 kts 266°
2026-04-21 16:24 15.14675 103.72146 37875 ft 456 kts 263°
2026-04-21 16:24 15.13684 103.65671 37871 ft 455 kts 263°
2026-04-21 16:25 15.12715 103.59245 37868 ft 455 kts 263°
2026-04-21 16:25 15.11803 103.52771 37865 ft 454 kts 264°
2026-04-21 16:26 15.10906 103.46299 37869 ft 454 kts 264°
2026-04-21 16:26 15.09990 103.39832 37873 ft 454 kts 264°
2026-04-21 16:27 15.09077 103.33418 37877 ft 454 kts 263°
2026-04-21 16:27 15.08153 103.26961 37877 ft 453 kts 264°
2026-04-21 16:28 15.07231 103.20510 37876 ft 453 kts 264°
2026-04-21 16:28 15.06309 103.14064 37873 ft 453 kts 263°
2026-04-21 16:29 15.05542 103.08709 37867 ft 453 kts 263°
2026-04-21 16:29 15.04469 103.01217 37865 ft 453 kts 263°
2026-04-21 16:30 15.03538 102.94765 37868 ft 454 kts 263°
2026-04-21 16:30 15.02603 102.88309 37871 ft 454 kts 263°
2026-04-21 16:31 15.01673 102.81892 37877 ft 454 kts 263°
2026-04-21 16:31 15.00734 102.75433 37872 ft 454 kts 263°
2026-04-21 16:32 14.99799 102.68978 37882 ft 454 kts 263°
2026-04-21 16:32 14.98862 102.62527 37877 ft 453 kts 263°
2026-04-21 16:33 14.97929 102.56124 37874 ft 453 kts 263°
2026-04-21 16:33 14.96984 102.49682 37876 ft 453 kts 263°
2026-04-21 16:34 14.96042 102.43236 37879 ft 453 kts 263°
2026-04-21 16:34 14.95099 102.36796 37881 ft 453 kts 263°
2026-04-21 16:35 14.94148 102.30314 37856 ft 459 kts 263°
2026-04-21 16:35 14.93185 102.23822 37860 ft 460 kts 263°
2026-04-21 16:36 14.92215 102.17275 37860 ft 461 kts 263°
2026-04-21 16:36 14.90459 102.10910 37860 ft 464 kts 248°
2026-04-21 16:36 14.89167 102.07854 37131 ft 463 kts 248°
2026-04-21 16:37 14.87877 102.04798 35917 ft 464 kts 248°
2026-04-21 16:37 14.86588 102.01738 34759 ft 464 kts 248°
2026-04-21 16:37 14.85320 101.98722 33756 ft 462 kts 248°
2026-04-21 16:37 14.84047 101.95689 33208 ft 460 kts 248°
2026-04-21 16:38 14.82772 101.92649 32995 ft 461 kts 248°
2026-04-21 16:38 14.81497 101.89609 32093 ft 462 kts 248°
2026-04-21 16:38 14.80206 101.86534 30308 ft 473 kts 248°
2026-04-21 16:38 14.78891 101.83406 28753 ft 475 kts 247°
2026-04-21 16:39 14.77579 101.80296 27726 ft 465 kts 247°
2026-04-21 16:39 14.76314 101.77308 27289 ft 448 kts 247°
2026-04-21 16:39 14.75070 101.74368 26638 ft 445 kts 247°
2026-04-21 16:39 14.73837 101.71441 26008 ft 443 kts 247°
2026-04-21 16:40 14.72630 101.68568 25386 ft 441 kts 247°
2026-04-21 16:40 14.71409 101.65664 24757 ft 440 kts 247°
2026-04-21 16:40 14.70191 101.62775 24144 ft 438 kts 247°
2026-04-21 16:40 14.68976 101.59898 23541 ft 436 kts 246°
2026-04-21 16:41 14.68174 101.58002 23105 ft 435 kts 247°
2026-04-21 16:41 14.66566 101.54200 22362 ft 428 kts 247°
2026-04-21 16:41 14.65382 101.51402 21843 ft 423 kts 247°
2026-04-21 16:41 14.64211 101.48638 21353 ft 418 kts 247°
2026-04-21 16:42 14.63053 101.45901 20875 ft 413 kts 247°
2026-04-21 16:42 14.61868 101.43258 20371 ft 410 kts 241°
2026-04-21 16:42 14.60429 101.40737 19884 ft 406 kts 239°
2026-04-21 16:42 14.58988 101.38239 19374 ft 404 kts 240°
2026-04-21 16:43 14.57556 101.35756 18864 ft 401 kts 240°
2026-04-21 16:43 14.56133 101.33288 18385 ft 399 kts 240°
2026-04-21 16:43 14.54731 101.30858 18177 ft 389 kts 240°
2026-04-21 16:43 14.53356 101.28469 17709 ft 385 kts 240°
2026-04-21 16:44 14.52011 101.26131 17217 ft 383 kts 240°
2026-04-21 16:44 14.50670 101.23773 16778 ft 379 kts 243°
2026-04-21 16:44 14.49680 101.21274 16352 ft 375 kts 254°
2026-04-21 16:44 14.49175 101.18655 15893 ft 371 kts 262°
2026-04-21 16:45 14.48781 101.16025 15435 ft 370 kts 262°
2026-04-21 16:45 14.48386 101.13413 14996 ft 367 kts 262°
2026-04-21 16:45 14.47991 101.10820 14568 ft 365 kts 261°
2026-04-21 16:45 14.47597 101.08249 14217 ft 360 kts 262°
2026-04-21 16:46 14.47211 101.05741 13905 ft 358 kts 261°
2026-04-21 16:46 14.46817 101.03201 13233 ft 363 kts 261°
2026-04-21 16:46 14.46419 101.00637 12843 ft 358 kts 261°
2026-04-21 16:46 14.46038 100.98172 12642 ft 336 kts 261°
2026-04-21 16:47 14.45680 100.95861 12327 ft 319 kts 261°
2026-04-21 16:47 14.45337 100.93629 11815 ft 312 kts 262°
2026-04-21 16:47 14.45003 100.91445 11524 ft 308 kts 261°
2026-04-21 16:47 14.44673 100.89274 11283 ft 305 kts 262°
2026-04-21 16:48 14.44349 100.87149 11061 ft 303 kts 262°
2026-04-21 16:48 14.44020 100.85007 10858 ft 302 kts 261°
2026-04-21 16:48 14.43693 100.82868 10599 ft 301 kts 261°
2026-04-21 16:48 14.43366 100.80745 10294 ft 299 kts 261°
2026-04-21 16:49 14.43037 100.78632 9985 ft 297 kts 261°
2026-04-21 16:49 14.42708 100.76535 9662 ft 295 kts 261°
2026-04-21 16:49 14.42384 100.74449 9333 ft 293 kts 261°
2026-04-21 16:49 14.42066 100.72378 9024 ft 291 kts 262°
2026-04-21 16:50 14.41751 100.70345 8649 ft 291 kts 261°
2026-04-21 16:50 14.41432 100.68286 8259 ft 290 kts 261°
2026-04-21 16:50 14.41116 100.66237 7896 ft 288 kts 261°
2026-04-21 16:50 14.40799 100.64242 7772 ft 276 kts 258°
2026-04-21 16:51 14.40018 100.62501 7652 ft 265 kts 228°
2026-04-21 16:51 14.38538 100.61462 7484 ft 257 kts 197°
2026-04-21 16:51 14.36783 100.61354 7291 ft 254 kts 167°
2026-04-21 16:51 14.35671 100.61725 7147 ft 255 kts 160°
2026-04-21 16:52 14.33434 100.62447 6862 ft 253 kts 165°
2026-04-21 16:52 14.31737 100.62906 6647 ft 252 kts 166°
2026-04-21 16:52 14.30590 100.63205 6492 ft 251 kts 166°
2026-04-21 16:52 14.28360 100.63797 6214 ft 249 kts 166°
2026-04-21 16:53 14.26688 100.64253 5993 ft 247 kts 165°
2026-04-21 16:53 14.25594 100.64556 5841 ft 245 kts 165°
2026-04-21 16:53 14.23414 100.65165 5570 ft 241 kts 165°
2026-04-21 16:53 14.22347 100.65465 5426 ft 239 kts 165°
2026-04-21 16:54 14.20748 100.65917 5225 ft 238 kts 165°
2026-04-21 16:54 14.19159 100.66368 5021 ft 236 kts 165°
2026-04-21 16:54 14.17589 100.66811 4927 ft 233 kts 165°
2026-04-21 16:54 14.16023 100.67255 4878 ft 233 kts 165°
2026-04-21 16:55 14.13954 100.67844 4817 ft 233 kts 165°
2026-04-21 16:55 14.12400 100.68287 4765 ft 231 kts 164°
2026-04-21 16:55 14.11392 100.68575 4681 ft 223 kts 165°
2026-04-21 16:55 14.09880 100.69006 4007 ft 231 kts 165°
2026-04-21 16:56 14.08306 100.69387 3428 ft 233 kts 176°
2026-04-21 16:56 14.06733 100.69129 3013 ft 228 kts 202°
2026-04-21 16:56 14.05332 100.68390 2590 ft 225 kts 206°
2026-04-21 16:56 14.04002 100.67649 2416 ft 211 kts 207°
2026-04-21 16:57 14.02770 100.66937 2182 ft 202 kts 207°
2026-04-21 16:57 14.01581 100.66263 1933 ft 188 kts 207°
2026-04-21 16:57 14.00495 100.65651 1721 ft 167 kts 206°
2026-04-21 16:57 13.99525 100.65106 1527 ft 150 kts 206°
2026-04-21 16:58 13.98642 100.64611 1318 ft 139 kts 207°
2026-04-21 16:58 13.97802 100.64139 1142 ft 135 kts 207°
2026-04-21 16:58 13.96977 100.63677 972 ft 135 kts 206°
2026-04-21 16:58 13.95897 100.63071 764 ft 133 kts 207°
2026-04-21 16:59 13.95347 100.62762 656 ft 133 kts 208°
2026-04-21 16:59 13.94542 100.62311 482 ft 134 kts 206°
2026-04-21 16:59 13.93726 100.61853 309 ft 133 kts 206°
2026-04-21 16:59 13.92904 100.61388 126 ft 135 kts 207°
2026-04-21 17:00 13.92098 100.60936 24 ft 123 kts 209°
2026-04-21 17:00 13.91487 100.60597 15 ft 75 kts 208°
2026-04-21 17:00 13.91210 100.60430 18 ft 34 kts 219°
2026-04-21 17:00 13.91095 100.60286 17 ft 17 kts 240°
2026-04-21 17:01 13.91133 100.60216 17 ft 12 kts 354°
2026-04-21 17:01 13.91206 100.60249 17 ft 11 kts 29°
2026-04-21 17:01 13.91271 100.60286 17 ft 10 kts 28°
2026-04-21 17:01 13.91332 100.60320 17 ft 10 kts 28°
2026-04-21 17:02 13.91404 100.60330 17 ft 11 kts 315°
2026-04-21 17:02 13.91464 100.60310 17 ft 9 kts 24°
2026-04-21 17:02 13.91532 100.60348 17 ft 13 kts 29°
2026-04-21 17:02 13.91617 100.60396 17 ft 15 kts 28°
2026-04-21 17:03 13.91704 100.60444 17 ft 13 kts 28°
2026-04-21 17:03 13.91782 100.60488 17 ft 12 kts 28°
2026-04-21 17:03 13.91855 100.60526 17 ft 11 kts 18°
2026-04-21 17:03 13.91895 100.60504 17 ft 0 kts 297°
2026-04-21 17:04 13.91906 100.60482 17 ft 6 kts 294°
2026-04-21 17:05 13.91891 100.60464 17 ft 3 kts 208°
2026-04-21 17:05 13.91869 100.60451 20 ft 5 kts 210°
2026-04-21 17:05 13.91847 100.60438 17 ft 1 kts 209°
2026-04-21 17:05 13.91846 100.60437 17 ft 0 kts 209°